一网星座-0212星 (ONEWEB-0212 )

导读

ONEWEB-0212是英国OneWeb卫星星座中的一颗通信卫星,于2021年5月28日发射升空。该卫星运行在1200公里高度的近地轨道,设计寿命约7年,单颗质量约147公斤,采用电力推进系统,通过Ku频段有效载荷提供宽带互联网服务。 作为OneWeb全球低轨卫星互联网星座的组成部分,它旨在为全球偏远地区、移动场景提供高速低延迟的网络连接,助力实现全球网络覆盖,目前该卫星已在轨正常运行,服务全球宽带通信需求。

Basic Information
目录编号:
48791
目录名称:
ONEWEB-0212
国际标识:
2021-045AA
轨道中心:
EARTH
卫星名称:
一网星座-0212星
卫星全名:
一网星座-0212星 (ONEWEB-0212 )
卫星状态:
在轨 (已飞行1932 天)
发射日期:
2021-05-28 UTC
国别 :
英国 (GB)
星等 :
--
This satellite is enrolled in the Space Conjunction Data Service (SCDS) and the current flight risk assessment level is: No High Risk
Orbit Information
数据来源 国际轨道数据 AOE轨道数据
星历时间 2026-09-10T19:17:03+0800
1天前
查看轨道信息
2026-09-06T07:00:00+0800
5天前
查看轨道信息
半长轴 7579.902km 7579.943km
偏心率 0.0002138 0.0002433
轨道倾角 87.898° 87.896°
近地点辐角 86.289° 83.097°
升交点赤经 242.188° 243.088°
平近点角 273.849° 161.300°
近地点 1200.144km 1199.961km
远地点 1203.386km 1203.651km
周期 109.460分钟 109.461分钟
每日圈数 13.155501 13.155395
Detailed Information
平衡模式:
三轴稳定
覆盖范围:
全球
运营商:
一网卫星公司
运营商所在国:
英国
制造商(研发单位):
一网卫星公司
制造商所在国:
英国
使用方式:
暂无
Satellite Introduction
OneWeb卫星网络由648颗重约125公斤的微型卫星组成,运行在1200公里的轨道上。 每颗卫星都能够提供至少每秒8千兆位的吞吐量,以使用其高吞吐量的Ku频段有效载荷为家庭和移动平台提供互联网接入。该卫星仍在工作。
2D Orbit Map
3D Orbit Map
Orbit Altitude Analysis Chart
Orbit Inclination Analysis Chart
Orbit Comprehensive Analysis Chart
View Comprehensive Chart
Conjunction Data List
Event ID Objects TCA Miss Dist (km) Collision Risk Probability Collision Risk Index (CRI) Action
CDM_260911-141301-907204-879126
2026-09-11T
14:13:08+0000
0.481 km
远距离
2.134989E-4 高风险 0.82
Miss Distance Evolution Trend with All Objects
Collision Probability Evolution Trend with All Objects